Total_Precipitation_Accumulation
1.47 1.47 1.47 1.48 1.58 1.74 1.89 2.16 2.38 2.27 1.98 1.71 1.69 1.65 1.61 1.66 1.85 1.59 1.46 1.47 1.34 1.25 1.24 1.23 1.25 1.28 1.30 1.27 1.29 1.36 1.48 1.65 1.89 2.08 2.26 2.45 2.60 2.73
1.37 1.33 1.32 1.31 1.37 1.42 1.53 1.72 2.00 2.18 2.01 1.65 1.59 1.55 1.55 1.49 1.71 1.51 1.50 1.51 1.28 1.11 1.04 1.03 1.06 1.11 1.12 1.10 1.11 1.15 1.21 1.30 1.49 1.71 1.92 2.13 2.29 2.45
1.21 1.23 1.26 1.30 1.36 1.32 1.36 1.48 1.65 1.87 1.99 1.78 1.61 1.54 1.53 1.60 1.60 1.47 1.38 1.29 1.20 1.14 0.99 0.93 0.93 1.01 1.01 0.99 1.03 1.05 1.07 1.17 1.33 1.50 1.70 1.90 2.06 2.17
1.13 1.21 1.23 1.26 1.32 1.33 1.37 1.43 1.56 1.76 1.91 1.95 1.76 1.60 1.54 1.56 1.58 1.51 1.26 1.13 1.12 1.19 1.03 0.92 0.86 0.84 0.93 0.91 0.91 0.97 1.04 1.14 1.25 1.36 1.53 1.69 1.83 1.91
1.08 1.15 1.19 1.24 1.25 1.28 1.33 1.38 1.50 1.63 1.83 1.91 1.81 1.67 1.58 1.52 1.62 1.52 1.38 1.44 1.19 1.13 1.05 0.97 0.90 0.88 1.09 1.11 0.89 0.88 0.92 1.04 1.12 1.20 1.32 1.43 1.53 1.60
0.92 1.03 1.10 1.14 1.15 1.23 1.29 1.36 1.45 1.62 1.78 1.85 1.74 1.62 1.56 1.57 1.66 1.68 1.60 1.52 1.38 1.10 1.09 1.03 1.00 1.01 1.33 1.82 1.31 1.01 0.95 1.01 1.08 1.15 1.18 1.19 1.20 1.24
0.81 0.89 0.96 0.98 0.99 1.06 1.09 1.21 1.39 1.57 1.67 1.76 1.71 1.65 1.58 1.69 1.71 1.64 1.58 1.56 1.43 1.28 1.26 1.13 1.25 1.52 2.03 2.64 2.15 1.51 1.28 1.16 1.08 1.12 1.14 1.12 1.07 1.03
0.87 0.88 0.84 0.84 0.82 0.79 0.86 0.97 1.17 1.40 1.60 1.71 1.68 1.67 1.63 1.68 1.78 1.75 1.70 1.72 1.67 1.40 1.34 1.29 1.49 2.23 2.85 3.12 2.66 1.83 1.52 1.29 1.16 1.19 1.22 1.19 1.05 0.95
0.94 0.91 0.77 0.73 0.84 0.85 0.87 0.89 1.02 1.15 1.39 1.64 1.72 1.64 1.64 1.69 1.85 1.90 1.82 1.80 1.74 1.52 1.55 1.55 1.73 2.53 2.76 2.87 2.68 1.90 1.59 1.43 1.36 1.42 1.40 1.21 1.03 0.92
0.76 0.82 0.90 0.91 0.85 0.89 0.89 1.00 1.09 1.19 1.26 1.39 1.60 1.56 1.52 1.63 1.77 1.80 1.76 1.70 1.64 1.51 1.54 1.70 1.89 2.40 2.37 2.47 2.49 1.96 1.65 1.52 1.47 1.46 1.41 1.20 1.00 0.89
0.59 0.64 0.71 0.76 0.77 0.84 0.95 1.12 1.18 1.30 1.29 1.44 1.47 1.41 1.42 1.46 1.44 1.50 1.75 1.89 1.80 1.54 1.43 1.59 1.79 2.09 2.14 2.21 2.10 1.90 1.71 1.59 1.48 1.42 1.32 1.09 0.97 0.92
0.63 0.69 0.66 0.60 0.67 0.78 0.98 1.21 1.37 1.42 1.50 1.63 1.60 1.57 1.48 1.45 1.37 1.41 1.72 1.94 1.91 1.67 1.39 1.44 1.58 1.77 2.02 2.01 1.83 1.69 1.72 1.74 1.62 1.54 1.37 1.07 0.86 0.83
0.67 0.75 0.74 0.63 0.59 0.67 0.88 1.10 1.27 1.32 1.54 1.79 1.66 1.50 1.45 1.42 1.39 1.40 1.55 1.67 1.65 1.54 1.29 1.38 1.57 1.68 1.81 1.86 1.80 1.75 1.67 1.66 1.67 1.71 1.59 1.27 0.94 0.74
0.72 0.73 0.72 0.67 0.63 0.71 0.86 1.04 1.17 1.36 1.57 1.68 1.47 1.31 1.22 1.20 1.25 1.21 1.20 1.23 1.29 1.27 1.21 1.34 1.59 1.76 1.77 1.65 1.74 1.74 1.72 1.72 1.70 1.73 1.72 1.54 1.23 1.02
0.64 0.70 0.66 0.62 0.72 0.93 1.05 1.16 1.32 1.55 1.60 1.47 1.34 1.21 1.10 1.12 1.10 1.07 1.07 1.11 1.10 0.98 0.92 1.05 1.33 1.54 1.66 1.64 1.67 1.67 1.77 1.94 1.91 1.87 1.81 1.64 1.42 1.21
0.60 0.74 0.78 0.78 0.95 1.16 1.30 1.40 1.51 1.60 1.46 1.32 1.24 1.12 1.00 1.07 1.12 1.07 1.16 1.19 1.18 1.10 0.98 0.99 1.13 1.34 1.48 1.48 1.61 1.72 1.76 2.12 2.20 2.00 1.93 1.86 1.60 1.37
0.58 0.76 0.90 0.94 1.07 1.22 1.35 1.42 1.48 1.49 1.42 1.29 1.21 1.12 1.04 1.03 1.00 0.94 1.04 1.11 1.15 1.17 1.14 1.10 1.13 1.19 1.28 1.36 1.55 1.67 1.80 2.05 2.17 1.96 1.83 1.92 1.79 1.51
0.64 0.91 1.00 0.98 1.03 1.13 1.25 1.34 1.34 1.32 1.28 1.29 1.27 1.22 1.13 1.03 0.99 0.94 0.95 1.03 1.12 1.10 1.09 1.07 1.05 1.07 1.17 1.29 1.47 1.58 1.62 1.81 1.88 1.74 1.54 1.60 1.76 1.56
0.69 0.90 1.00 1.04 1.07 1.11 1.14 1.18 1.24 1.25 1.19 1.21 1.23 1.17 1.06 0.98 0.96 0.96 0.95 1.00 1.03 0.98 0.91 0.84 0.85 0.93 1.06 1.35 1.51 1.54 1.54 1.55 1.55 1.54 1.44 1.34 1.45 1.44
0.68 0.86 0.97 1.04 1.09 1.12 1.12 1.09 1.13 1.16 1.11 1.06 1.10 1.09 1.01 0.96 0.97 0.98 0.98 0.93 0.94 0.88 0.84 0.77 0.74 0.82 0.97 1.19 1.55 1.70 1.48 1.29 1.24 1.34 1.35 1.30 1.39 1.41
0.62 0.74 0.85 0.94 0.96 0.97 1.02 1.03 1.06 1.11 1.04 1.00 1.04 1.07 1.04 0.99 0.93 0.85 0.81 0.73 0.79 0.83 0.81 0.81 0.77 0.72 0.70 0.84 1.14 1.42 1.46 1.32 1.18 1.16 1.16 1.23 1.26 1.16
0.59 0.68 0.76 0.79 0.80 0.76 0.77 0.82 0.86 0.89 0.90 0.95 1.00 0.96 0.90 0.86 0.78 0.71 0.70 0.73 0.78 0.81 0.78 0.74 0.69 0.68 0.72 0.84 1.00 1.18 1.28 1.17 1.08 1.07 1.04 0.98 0.96 1.00
0.63 0.67 0.70 0.70 0.69 0.66 0.65 0.66 0.70 0.75 0.79 0.82 0.87 0.85 0.78 0.74 0.69 0.62 0.60 0.60 0.61 0.63 0.67 0.70 0.72 0.70 0.72 0.74 0.77 0.88 0.96 0.97 0.91 0.88 0.98 0.98 0.89 0.95